This is the latest recevied weather packets stored in our database for station/object EA1IOK-1. If no packets are shown the sender has not sent any weather packets the latest 10 day(s).
| Time | Temp. | Humidity | Pressure | Rain* | Wind** | Luminosity | Snow |
|---|---|---|---|---|---|---|---|
| 1777832642 | 13.89° C | 100% | 1011.3 hPa | - | - | - | - |
| 1777831777 | 15.56° C | 100% | 1011.3 hPa | - | - | - | - |
| 1777831742 | 15.56° C | 100% | 1011.3 hPa | - | - | - | - |
| 1777830842 | 14.44° C | 100% | 1011.4 hPa | - | - | - | - |
| 1777829941 | 16.11° C | 100% | 1011.3 hPa | - | - | - | - |
| 1777829040 | 13.89° C | 100% | 1011.3 hPa | - | - | - | - |
| 1777828140 | 14.44° C | 100% | 1011.2 hPa | - | - | - | - |
| 1777827239 | 14.44° C | 100% | 1011.2 hPa | - | - | - | - |
| 1777826338 | 16.11° C | 100% | 1011.2 hPa | - | - | - | - |
| 1777825437 | 13.33° C | 100% | 1011.1 hPa | - | - | - | - |
| 1777824537 | 14.44° C | 100% | 1011 hPa | - | - | - | - |
| 1777823636 | 15° C | 100% | 1010.9 hPa | - | - | - | - |
| 1777822735 | 16.67° C | 100% | 1011 hPa | - | - | - | - |
| 1777821834 | 16.67° C | 100% | 1011.1 hPa | - | - | - | - |
| 1777820934 | 17.22° C | 100% | 1011.2 hPa | - | - | - | - |
| 1777820034 | 16.67° C | 100% | 1011.1 hPa | - | - | - | - |
| 1777819133 | 15.56° C | 100% | 1011.2 hPa | - | - | - | - |
| 1777818233 | 15.56° C | 100% | 1011.3 hPa | - | - | - | - |
| 1777817332 | 15° C | 100% | 1011.3 hPa | - | - | - | - |
| 1777816431 | 15° C | 100% | 1011.3 hPa | - | - | - | - |
| 1777815531 | 13.89° C | 100% | 1011.5 hPa | - | - | - | - |
| 1777814630 | 15° C | 100% | 1011.4 hPa | - | - | - | - |
| 1777813729 | 16.67° C | 100% | 1011.5 hPa | - | - | - | - |
| 1777812828 | 15.56° C | 100% | 1011.5 hPa | - | - | - | - |
| 1777811927 | 15° C | 100% | 1011.6 hPa | - | - | - | - |
* Rain since midnight (hover to see other rain measurements)
** Current wind speed in m/s (hover to see current wind gust speed)